Time,TemperatureF,DewpointF,PressureIn,WindDirection,WindDirectionDegrees,WindSpeedMPH,WindSpeedGustMPH,Humidity,HourlyPrecipIn,Conditions,Clouds,dailyrainin,SoftwareType,DateUTC
2013-09-10 00:04:00,64.0,61.3,29.80,WNW,298,0.0,0.0,91,0.00,,CLR,0.00,VWS V14.00,2013-09-10 05:04:00,
2013-09-10 00:09:00,63.8,61.1,29.80,WNW,298,0.0,0.0,91,0.00,,CLR,0.00,VWS V14.00,2013-09-10 05:09:00,
2013-09-10 00:14:00,63.6,60.9,29.80,WNW,298,0.0,0.0,91,0.00,,CLR,0.00,VWS V14.00,2013-09-10 05:14:00,
2013-09-10 00:19:00,63.5,60.8,29.80,WNW,298,0.0,0.0,91,0.00,,CLR,0.00,VWS V14.00,2013-09-10 05:19:00,
2013-09-10 00:24:00,63.4,61.0,29.80,WNW,298,0.0,0.0,92,0.00,,CLR,0.00,VWS V14.00,2013-09-10 05:24:00,
2013-09-10 00:29:00,63.3,60.6,29.80,WNW,298,0.0,0.0,91,0.00,,CLR,0.00,VWS V14.00,2013-09-10 05:29:00,
2013-09-10 00:34:00,63.2,60.5,29.80,WNW,298,0.0,0.0,91,0.00,,CLR,0.00,VWS V14.00,2013-09-10 05:34:00,
2013-09-10 00:39:00,63.1,60.7,29.80,WNW,298,0.0,0.0,92,0.00,,CLR,0.00,VWS V14.00,2013-09-10 05:39:00,
2013-09-10 00:44:00,63.0,60.3,29.80,WNW,298,0.0,0.0,91,0.00,,,0.00,VWS V14.00,2013-09-10 05:44:00,
2013-09-10 00:49:00,62.7,60.0,29.80,WNW,298,0.0,0.0,91,0.00,,,0.00,VWS V14.00,2013-09-10 05:49:00,
2013-09-10 00:54:00,62.6,60.2,29.80,WNW,298,0.0,0.0,92,0.00,,,0.00,VWS V14.00,2013-09-10 05:54:00,
2013-09-10 00:59:00,62.4,60.0,29.80,WNW,298,0.0,0.0,92,0.00,,,0.00,VWS V14.00,2013-09-10 05:59:00,
2013-09-10 01:04:00,62.3,60.0,29.80,WNW,298,0.0,0.0,92,0.00,,,0.00,VWS V14.00,2013-09-10 06:04:00,
2013-09-10 01:09:00,62.2,59.8,29.80,WNW,298,0.0,0.0,92,0.00,,,0.00,VWS V14.00,2013-09-10 06:09:00,
2013-09-10 01:14:00,62.1,59.8,29.80,WNW,298,0.0,0.0,92,0.00,,,0.00,VWS V14.00,2013-09-10 06:14:00,
2013-09-10 01:19:00,62.0,59.7,29.80,WNW,298,0.0,0.0,92,0.00,,,0.00,VWS V14.00,2013-09-10 06:19:00,
2013-09-10 01:24:00,61.8,59.5,29.80,WNW,298,0.0,0.0,92,0.00,,,0.00,VWS V14.00,2013-09-10 06:24:00,
2013-09-10 01:29:00,61.7,59.4,29.80,WNW,298,0.0,0.0,92,0.00,,,0.00,VWS V14.00,2013-09-10 06:29:00,
2013-09-10 01:34:00,61.5,59.2,29.80,WNW,298,0.0,0.0,92,0.00,,,0.00,VWS V14.00,2013-09-10 06:34:00,
2013-09-10 01:39:00,61.3,59.0,29.80,WNW,298,0.0,0.0,92,0.00,,,0.00,VWS V14.00,2013-09-10 06:39:00,
2013-09-10 01:44:00,61.3,59.0,29.80,WNW,298,0.0,0.0,92,0.00,,,0.00,VWS V14.00,2013-09-10 06:44:00,
2013-09-10 01:49:00,61.2,58.9,29.80,WNW,298,0.0,0.0,92,0.00,,,0.00,VWS V14.00,2013-09-10 06:49:00,
2013-09-10 01:54:00,61.1,58.8,29.80,WNW,298,0.0,0.0,92,0.00,,,0.00,VWS V14.00,2013-09-10 06:54:00,
2013-09-10 01:59:00,61.0,58.7,29.80,WNW,298,0.0,0.0,92,0.00,,,0.00,VWS V14.00,2013-09-10 06:59:00,
2013-09-10 02:04:00,60.9,58.6,29.81,WNW,298,0.0,0.0,92,0.00,,,0.00,VWS V14.00,2013-09-10 07:04:00,
2013-09-10 02:09:00,60.7,58.4,29.81,WNW,298,0.0,0.0,92,0.00,,,0.00,VWS V14.00,2013-09-10 07:09:00,
2013-09-10 02:14:00,60.6,58.3,29.81,WNW,298,0.0,0.0,92,0.00,,,0.00,VWS V14.00,2013-09-10 07:14:00,
2013-09-10 02:19:00,60.5,58.5,29.81,WNW,298,0.0,0.0,93,0.00,,,0.00,VWS V14.00,2013-09-10 07:19:00,
2013-09-10 02:24:00,60.4,58.1,29.81,WNW,298,0.0,0.0,92,0.00,,,0.00,VWS V14.00,2013-09-10 07:24:00,
2013-09-10 02:29:00,60.3,58.3,29.81,WNW,298,0.0,0.0,93,0.00,,,0.00,VWS V14.00,2013-09-10 07:29:00,
2013-09-10 02:34:00,60.4,58.4,29.83,WNW,298,0.0,0.0,93,0.00,,,0.00,VWS V14.00,2013-09-10 07:34:00,
2013-09-10 02:39:00,60.7,58.7,29.83,WNW,298,0.0,0.0,93,0.00,,,0.00,VWS V14.00,2013-09-10 07:39:00,
2013-09-10 02:44:00,61.0,59.0,29.83,WNW,298,0.0,0.0,93,0.00,,,0.00,VWS V14.00,2013-09-10 07:44:00,
2013-09-10 02:49:00,61.2,59.2,29.82,WNW,298,0.0,0.0,93,0.00,,,0.00,VWS V14.00,2013-09-10 07:49:00,
2013-09-10 02:54:00,61.3,59.3,29.83,WNW,298,0.0,0.0,93,0.00,,,0.00,VWS V14.00,2013-09-10 07:54:00,
2013-09-10 02:59:00,61.4,59.4,29.83,WNW,298,0.0,0.0,93,0.00,,,0.00,VWS V14.00,2013-09-10 07:59:00,
2013-09-10 03:04:00,61.6,59.6,29.82,WNW,298,0.0,0.0,93,0.00,,OVC013,0.00,VWS V14.00,2013-09-10 08:04:00,
2013-09-10 03:09:00,61.8,59.8,29.83,WNW,298,0.0,0.0,93,0.00,,OVC013,0.00,VWS V14.00,2013-09-10 08:09:00,
2013-09-10 03:14:00,61.9,59.9,29.83,WNW,298,0.0,0.0,93,0.00,,OVC013,0.00,VWS V14.00,2013-09-10 08:14:00,
2013-09-10 03:19:00,62.1,60.1,29.83,WNW,298,0.0,0.0,93,0.00,,OVC013,0.00,VWS V14.00,2013-09-10 08:19:00,
2013-09-10 03:24:00,62.2,60.2,29.83,WNW,298,0.0,0.0,93,0.00,,OVC013,0.00,VWS V14.00,2013-09-10 08:24:00,
2013-09-10 03:29:00,62.3,60.2,29.83,WNW,298,0.0,0.0,93,0.00,,OVC013,0.00,VWS V14.00,2013-09-10 08:29:00,
2013-09-10 03:34:00,62.5,60.8,29.83,WNW,298,0.0,0.0,94,0.00,,OVC013,0.00,VWS V14.00,2013-09-10 08:34:00,
2013-09-10 03:39:00,62.6,60.8,29.83,WNW,298,0.0,0.0,94,0.00,,OVC013,0.00,VWS V14.00,2013-09-10 08:39:00,
2013-09-10 03:44:00,62.8,61.0,29.82,WNW,298,0.0,0.0,94,0.00,,BKN047,0.00,VWS V14.00,2013-09-10 08:44:00,
2013-09-10 03:49:00,62.9,61.2,29.82,WNW,295,0.0,4.0,94,0.00,,BKN047,0.00,VWS V14.00,2013-09-10 08:49:00,
2013-09-10 03:54:00,63.0,61.2,29.82,West,260,5.0,6.0,94,0.00,,BKN047,0.00,VWS V14.00,2013-09-10 08:54:00,
2013-09-10 03:59:00,63.2,61.5,29.82,SW,232,1.0,8.0,94,0.00,,BKN047,0.00,VWS V14.00,2013-09-10 08:59:00,
2013-09-10 04:04:00,63.3,61.5,29.83,SW,232,0.0,0.0,94,0.00,,BKN044,0.00,VWS V14.00,2013-09-10 09:04:00,
2013-09-10 04:09:00,63.3,61.5,29.83,SW,232,0.0,0.0,94,0.00,,BKN044,0.00,VWS V14.00,2013-09-10 09:09:00,
2013-09-10 04:14:00,63.3,61.5,29.83,SW,232,0.0,0.0,94,0.00,,BKN044,0.00,VWS V14.00,2013-09-10 09:14:00,
2013-09-10 04:19:00,63.4,61.7,29.82,SW,232,0.0,0.0,94,0.00,,BKN044,0.00,VWS V14.00,2013-09-10 09:19:00,
2013-09-10 04:24:00,63.4,61.7,29.82,SW,214,3.0,7.0,94,0.01,,BKN044,0.01,VWS V14.00,2013-09-10 09:24:00,
2013-09-10 04:29:00,63.4,61.7,29.81,SSW,206,2.0,7.0,94,0.02,,BKN044,0.02,VWS V14.00,2013-09-10 09:29:00,
2013-09-10 04:34:00,63.4,61.7,29.81,SSW,193,4.0,8.0,94,0.02,,BKN044,0.02,VWS V14.00,2013-09-10 09:34:00,
2013-09-10 04:39:00,63.5,61.8,29.81,South,182,0.0,9.0,94,0.02,,BKN044,0.02,VWS V14.00,2013-09-10 09:39:00,
2013-09-10 04:44:00,63.5,61.8,29.81,South,182,1.0,7.0,94,0.02,,BKN044,0.02,VWS V14.00,2013-09-10 09:44:00,
2013-09-10 04:49:00,63.4,61.7,29.81,South,182,2.0,7.0,94,0.02,,BKN044,0.02,VWS V14.00,2013-09-10 09:49:00,
2013-09-10 04:54:00,63.3,61.5,29.81,South,182,5.0,7.0,94,0.02,,BKN044,0.02,VWS V14.00,2013-09-10 09:54:00,
2013-09-10 04:59:00,63.3,61.5,29.81,South,181,4.0,9.0,94,0.02,,BKN044,0.02,VWS V14.00,2013-09-10 09:59:00,
2013-09-10 05:04:00,63.2,61.5,29.81,South,178,6.0,10.0,94,0.02,,BKN085,0.02,VWS V14.00,2013-09-10 10:04:00,
2013-09-10 05:10:00,63.2,61.5,29.81,South,178,3.0,10.0,94,0.02,,BKN085,0.02,VWS V14.00,2013-09-10 10:10:00,
2013-09-10 05:15:00,63.1,61.3,29.81,South,178,2.0,6.0,94,0.02,,BKN085,0.02,VWS V14.00,2013-09-10 10:15:00,
2013-09-10 05:20:00,63.1,61.3,29.81,South,178,0.0,7.0,94,0.02,,BKN085,0.02,VWS V14.00,2013-09-10 10:20:00,
2013-09-10 05:25:00,63.0,61.2,29.81,South,178,0.0,1.0,94,0.02,,BKN085,0.02,VWS V14.00,2013-09-10 10:25:00,
2013-09-10 05:30:00,62.9,61.2,29.81,South,178,0.0,0.0,94,0.00,,BKN085,0.02,VWS V14.00,2013-09-10 10:30:00,
2013-09-10 05:35:00,62.8,61.0,29.82,South,178,0.0,0.0,94,0.00,,BKN085,0.02,VWS V14.00,2013-09-10 10:35:00,
2013-09-10 05:40:00,62.7,61.0,29.81,South,178,0.0,0.0,94,0.00,,BKN085,0.02,VWS V14.00,2013-09-10 10:40:00,
2013-09-10 05:45:00,62.6,61.2,29.81,South,178,0.0,0.0,95,0.00,,BKN085,0.02,VWS V14.00,2013-09-10 10:45:00,
2013-09-10 05:50:00,62.5,61.0,29.81,South,178,0.0,0.0,95,0.00,,BKN085,0.02,VWS V14.00,2013-09-10 10:50:00,
2013-09-10 05:55:00,62.6,60.8,29.81,South,178,1.0,7.0,94,0.00,,BKN085,0.02,VWS V14.00,2013-09-10 10:55:00,
2013-09-10 06:00:00,62.6,60.8,29.82,South,178,0.0,0.0,94,0.00,,BKN085,0.02,VWS V14.00,2013-09-10 11:00:00,
2013-09-10 06:05:00,62.6,61.2,29.82,South,178,3.0,7.0,95,0.00,,CLR,0.02,VWS V14.00,2013-09-10 11:05:00,
2013-09-10 06:10:00,62.5,60.8,29.81,South,178,4.0,5.0,94,0.00,,CLR,0.02,VWS V14.00,2013-09-10 11:10:00,
2013-09-10 06:15:00,62.5,60.8,29.81,South,178,0.0,7.0,94,0.00,,CLR,0.02,VWS V14.00,2013-09-10 11:15:00,
2013-09-10 06:20:00,62.5,60.8,29.81,South,178,0.0,0.0,94,0.00,,CLR,0.02,VWS V14.00,2013-09-10 11:20:00,
2013-09-10 06:25:00,62.4,60.7,29.81,South,178,0.0,4.0,94,0.00,,CLR,0.02,VWS V14.00,2013-09-10 11:25:00,
2013-09-10 06:30:00,62.3,60.6,29.82,South,178,0.0,0.0,94,0.00,,CLR,0.02,VWS V14.00,2013-09-10 11:30:00,
2013-09-10 06:35:00,62.2,60.5,29.82,South,178,0.0,6.0,94,0.00,,CLR,0.02,VWS V14.00,2013-09-10 11:35:00,
2013-09-10 06:40:00,62.2,60.5,29.82,South,178,4.0,6.0,94,0.00,,CLR,0.02,VWS V14.00,2013-09-10 11:40:00,
2013-09-10 06:45:00,62.1,60.4,29.82,South,178,4.0,8.0,94,0.00,,CLR,0.02,VWS V14.00,2013-09-10 11:45:00,
2013-09-10 06:50:00,62.0,60.3,29.82,South,178,2.0,4.0,94,0.00,,CLR,0.02,VWS V14.00,2013-09-10 11:50:00,
2013-09-10 06:55:00,61.9,60.2,29.82,South,178,0.0,4.0,94,0.00,,CLR,0.02,VWS V14.00,2013-09-10 11:55:00,
2013-09-10 07:00:00,61.9,60.2,29.83,South,178,0.0,0.0,94,0.00,,CLR,0.02,VWS V14.00,2013-09-10 12:00:00,
2013-09-10 07:05:00,61.7,60.0,29.83,South,178,0.0,0.0,94,0.00,,CLR,0.02,VWS V14.00,2013-09-10 12:05:00,
2013-09-10 07:10:00,61.6,59.9,29.83,South,178,0.0,0.0,94,0.00,,CLR,0.02,VWS V14.00,2013-09-10 12:10:00,
2013-09-10 07:15:00,61.5,59.8,29.84,South,178,0.0,0.0,94,0.00,,CLR,0.02,VWS V14.00,2013-09-10 12:15:00,
2013-09-10 07:20:00,61.3,59.6,29.84,South,178,0.0,0.0,94,0.00,,BKN020,0.02,VWS V14.00,2013-09-10 12:20:00,
2013-09-10 07:25:00,61.4,59.7,29.84,South,178,0.0,0.0,94,0.00,,BKN020,0.02,VWS V14.00,2013-09-10 12:25:00,
2013-09-10 07:30:00,61.7,60.0,29.84,South,178,0.0,0.0,94,0.00,,BKN020,0.02,VWS V14.00,2013-09-10 12:30:00,
2013-09-10 07:35:00,62.0,60.3,29.84,South,178,0.0,0.0,94,0.00,,BKN020,0.02,VWS V14.00,2013-09-10 12:35:00,
2013-09-10 07:40:00,62.2,60.5,29.85,South,178,0.0,0.0,94,0.00,,BKN020,0.02,VWS V14.00,2013-09-10 12:40:00,
2013-09-10 07:45:00,62.4,60.7,29.85,South,178,0.0,0.0,94,0.00,,OVC023,0.02,VWS V14.00,2013-09-10 12:45:00,
2013-09-10 07:50:00,62.5,60.8,29.85,South,178,0.0,0.0,94,0.00,,OVC023,0.02,VWS V14.00,2013-09-10 12:50:00,
2013-09-10 07:55:00,62.7,61.0,29.85,South,178,0.0,0.0,94,0.00,,OVC023,0.02,VWS V14.00,2013-09-10 12:55:00,
2013-09-10 08:00:00,62.7,61.0,29.85,South,178,0.0,0.0,94,0.00,,OVC012,0.02,VWS V14.00,2013-09-10 13:00:00,
2013-09-10 08:05:00,62.8,61.0,29.85,South,178,0.0,0.0,94,0.00,,OVC012,0.02,VWS V14.00,2013-09-10 13:05:00,
2013-09-10 08:10:00,62.9,61.2,29.85,South,178,0.0,0.0,94,0.00,,OVC012,0.02,VWS V14.00,2013-09-10 13:10:00,
2013-09-10 08:15:00,62.9,61.2,29.85,South,178,0.0,0.0,94,0.00,,OVC012,0.02,VWS V14.00,2013-09-10 13:15:00,
2013-09-10 08:21:00,62.9,61.2,29.85,South,178,0.0,0.0,94,0.00,,OVC012,0.02,VWS V14.00,2013-09-10 13:21:00,
2013-09-10 08:26:00,62.9,61.2,29.85,South,178,0.0,0.0,94,0.00,,OVC012,0.02,VWS V14.00,2013-09-10 13:26:00,
2013-09-10 08:31:00,62.9,61.2,29.85,South,178,0.0,0.0,94,0.00,,OVC012,0.02,VWS V14.00,2013-09-10 13:31:00,
2013-09-10 08:36:00,62.9,61.2,29.85,South,178,0.0,0.0,94,0.00,,OVC012,0.02,VWS V14.00,2013-09-10 13:36:00,
2013-09-10 08:41:00,62.9,61.2,29.86,South,178,0.0,0.0,94,0.00,,OVC012,0.02,VWS V14.00,2013-09-10 13:41:00,
2013-09-10 08:46:00,63.0,61.2,29.86,South,178,0.0,0.0,94,0.00,,OVC012,0.02,VWS V14.00,2013-09-10 13:46:00,
2013-09-10 08:51:00,63.0,61.2,29.86,South,178,0.0,0.0,94,0.00,,OVC012,0.02,VWS V14.00,2013-09-10 13:51:00,
2013-09-10 08:56:00,63.0,61.5,29.86,South,178,0.0,0.0,95,0.00,,OVC012,0.02,VWS V14.00,2013-09-10 13:56:00,
2013-09-10 09:01:00,63.1,61.3,29.86,South,178,0.0,0.0,94,0.00,,OVC014,0.02,VWS V14.00,2013-09-10 14:01:00,
2013-09-10 09:06:00,63.3,61.5,29.86,South,178,0.0,0.0,94,0.00,,OVC014,0.02,VWS V14.00,2013-09-10 14:06:00,
2013-09-10 09:11:00,63.2,61.8,29.86,WSW,246,4.0,8.0,95,0.00,,OVC014,0.02,VWS V14.00,2013-09-10 14:11:00,
2013-09-10 09:16:00,63.1,61.3,29.86,WNW,301,0.0,11.0,94,0.00,,OVC014,0.02,VWS V14.00,2013-09-10 14:16:00,
2013-09-10 09:21:00,62.8,61.3,29.86,NW,310,2.0,7.0,95,0.00,,OVC014,0.02,VWS V14.00,2013-09-10 14:21:00,
2013-09-10 09:26:00,62.7,61.0,29.87,NW,314,0.0,7.0,94,0.00,,OVC014,0.02,VWS V14.00,2013-09-10 14:26:00,
2013-09-10 09:31:00,62.7,61.0,29.87,NW,308,0.0,4.0,94,0.00,,OVC014,0.02,VWS V14.00,2013-09-10 14:31:00,
2013-09-10 09:36:00,62.6,60.5,29.87,WNW,296,9.0,15.0,93,0.00,,OVC012,0.02,VWS V14.00,2013-09-10 14:36:00,
2013-09-10 09:41:00,62.3,60.2,29.88,WNW,293,7.0,13.0,93,0.00,,OVC012,0.02,VWS V14.00,2013-09-10 14:41:00,
2013-09-10 09:46:00,62.1,60.1,29.88,WNW,290,0.0,13.0,93,0.00,,OVC012,0.02,VWS V14.00,2013-09-10 14:46:00,
2013-09-10 09:51:00,61.9,59.9,29.88,WNW,294,0.0,1.0,93,0.00,,OVC012,0.02,VWS V14.00,2013-09-10 14:51:00,
2013-09-10 09:56:00,61.8,59.8,29.88,WNW,295,0.0,2.0,93,0.00,,OVC012,0.02,VWS V14.00,2013-09-10 14:56:00,
2013-09-10 10:01:00,61.9,59.9,29.88,NW,314,1.0,2.0,93,0.00,,OVC008,0.02,VWS V14.00,2013-09-10 15:01:00,
2013-09-10 10:06:00,62.1,60.1,29.88,NW,306,0.0,6.0,93,0.00,,OVC008,0.02,VWS V14.00,2013-09-10 15:06:00,
2013-09-10 10:11:00,62.3,60.2,29.88,NW,305,0.0,0.0,93,0.00,,OVC008,0.02,VWS V14.00,2013-09-10 15:11:00,
2013-09-10 10:16:00,62.5,60.2,29.89,WNW,299,0.0,0.0,92,0.00,,OVC008,0.02,VWS V14.00,2013-09-10 15:16:00,
2013-09-10 10:21:00,62.6,60.2,29.89,WNW,298,1.0,8.0,92,0.00,,OVC008,0.02,VWS V14.00,2013-09-10 15:21:00,
2013-09-10 10:26:00,62.6,59.9,29.89,NW,305,1.0,9.0,91,0.00,,OVC008,0.02,VWS V14.00,2013-09-10 15:26:00,
2013-09-10 10:31:00,62.8,60.1,29.89,WNW,298,0.0,7.0,91,0.00,,OVC013,0.02,VWS V14.00,2013-09-10 15:31:00,
2013-09-10 10:36:00,63.2,60.2,29.90,WNW,302,3.0,7.0,90,0.00,,OVC013,0.02,VWS V14.00,2013-09-10 15:36:00,
2013-09-10 10:41:00,63.5,60.5,29.89,WNW,292,4.0,4.0,90,0.00,,OVC013,0.02,VWS V14.00,2013-09-10 15:41:00,
2013-09-10 10:46:00,63.6,60.3,29.90,NW,316,4.0,8.0,89,0.00,,OVC013,0.02,VWS V14.00,2013-09-10 15:46:00,
2013-09-10 10:51:00,63.6,60.3,29.90,NW,319,4.0,4.0,89,0.00,,OVC013,0.02,VWS V14.00,2013-09-10 15:51:00,
2013-09-10 10:56:00,63.9,60.3,29.90,NW,315,0.0,5.0,88,0.00,,OVC013,0.02,VWS V14.00,2013-09-10 15:56:00,
2013-09-10 11:01:00,64.0,60.1,29.90,NW,322,0.0,2.0,87,0.00,,OVC013,0.02,VWS V14.00,2013-09-10 16:01:00,
2013-09-10 11:06:00,64.0,60.1,29.90,NW,321,0.0,8.0,87,0.00,,OVC013,0.02,VWS V14.00,2013-09-10 16:06:00,
2013-09-10 11:11:00,64.1,59.8,29.90,NW,309,0.0,9.0,86,0.00,,OVC013,0.02,VWS V14.00,2013-09-10 16:11:00,
2013-09-10 11:16:00,64.3,60.0,29.90,NW,304,0.0,9.0,86,0.00,,OVC013,0.02,VWS V14.00,2013-09-10 16:16:00,
2013-09-10 11:21:00,64.4,59.8,29.91,WNW,293,0.0,3.0,85,0.00,,OVC013,0.02,VWS V14.00,2013-09-10 16:21:00,
2013-09-10 11:26:00,64.5,59.9,29.91,WNW,293,0.0,8.0,85,0.00,,OVC013,0.02,VWS V14.00,2013-09-10 16:26:00,
2013-09-10 11:31:00,64.7,60.1,29.91,NW,309,0.0,1.0,85,0.00,,OVC015,0.02,VWS V14.00,2013-09-10 16:31:00,
2013-09-10 11:36:00,65.0,60.0,29.91,NW,311,5.0,6.0,84,0.00,,OVC015,0.02,VWS V14.00,2013-09-10 16:36:00,
2013-09-10 11:41:00,65.2,60.2,29.91,NW,321,0.0,3.0,84,0.00,,OVC015,0.02,VWS V14.00,2013-09-10 16:41:00,
2013-09-10 11:46:00,65.4,60.5,29.91,NW,317,0.0,3.0,84,0.00,,OVC015,0.02,VWS V14.00,2013-09-10 16:46:00,
2013-09-10 11:51:00,65.8,60.5,29.91,NW,316,0.0,1.0,83,0.00,,OVC015,0.02,VWS V14.00,2013-09-10 16:51:00,
2013-09-10 11:56:00,66.2,60.5,29.92,West,279,0.0,9.0,82,0.00,,OVC015,0.02,VWS V14.00,2013-09-10 16:56:00,
2013-09-10 12:01:00,66.5,60.5,29.91,West,265,7.0,9.0,81,0.00,,OVC019,0.02,VWS V14.00,2013-09-10 17:01:00,
2013-09-10 12:06:00,66.9,60.5,29.91,West,273,5.0,11.0,80,0.00,,OVC019,0.02,VWS V14.00,2013-09-10 17:06:00,
2013-09-10 12:11:00,67.1,60.4,29.92,West,274,0.0,5.0,79,0.00,,OVC019,0.02,VWS V14.00,2013-09-10 17:11:00,
2013-09-10 12:16:00,67.2,60.5,29.92,West,279,0.0,5.0,79,0.00,,OVC019,0.02,VWS V14.00,2013-09-10 17:16:00,
2013-09-10 12:21:00,67.4,60.7,29.92,WNW,301,0.0,0.0,79,0.00,,OVC019,0.02,VWS V14.00,2013-09-10 17:21:00,
2013-09-10 12:26:00,67.6,60.9,29.92,WNW,301,0.0,0.0,79,0.00,,OVC019,0.02,VWS V14.00,2013-09-10 17:26:00,
2013-09-10 12:32:00,68.0,60.9,29.92,NW,306,0.0,2.0,78,0.00,,OVC019,0.02,VWS V14.00,2013-09-10 17:32:00,
2013-09-10 12:37:00,68.3,61.2,29.92,NW,305,0.0,3.0,78,0.00,,OVC019,0.02,VWS V14.00,2013-09-10 17:37:00,
2013-09-10 12:42:00,68.9,61.8,29.92,NW,305,0.0,0.0,78,0.00,,OVC019,0.02,VWS V14.00,2013-09-10 17:42:00,
2013-09-10 12:47:00,69.9,62.0,29.92,WNW,296,0.0,7.0,76,0.00,,OVC019,0.02,VWS V14.00,2013-09-10 17:47:00,
2013-09-10 12:52:00,70.4,62.1,29.92,West,279,0.0,4.0,75,0.00,,OVC019,0.02,VWS V14.00,2013-09-10 17:52:00,
2013-09-10 12:57:00,70.6,61.9,29.92,West,279,0.0,4.0,74,0.00,,OVC019,0.02,VWS V14.00,2013-09-10 17:57:00,
2013-09-10 13:02:00,70.6,61.9,29.92,WSW,253,0.0,7.0,74,0.00,,BKN030,0.02,VWS V14.00,2013-09-10 18:02:00,
2013-09-10 13:07:00,70.6,62.3,29.92,SW,233,0.0,7.0,75,0.00,,BKN030,0.02,VWS V14.00,2013-09-10 18:07:00,
2013-09-10 13:12:00,70.9,62.2,29.92,WSW,237,0.0,2.0,74,0.00,,BKN030,0.02,VWS V14.00,2013-09-10 18:12:00,
2013-09-10 13:17:00,71.0,62.3,29.92,WSW,239,0.0,2.0,74,0.00,,BKN030,0.02,VWS V14.00,2013-09-10 18:17:00,
2013-09-10 13:22:00,71.2,62.5,29.92,WSW,239,0.0,1.0,74,0.00,,BKN030,0.02,VWS V14.00,2013-09-10 18:22:00,
2013-09-10 13:27:00,71.5,62.4,29.92,WSW,246,0.0,1.0,73,0.00,,BKN030,0.02,VWS V14.00,2013-09-10 18:27:00,
2013-09-10 13:32:00,72.0,62.5,29.92,West,261,0.0,6.0,72,0.00,,BKN030,0.02,VWS V14.00,2013-09-10 18:32:00,
2013-09-10 13:37:00,72.3,62.8,29.92,West,261,0.0,7.0,72,0.00,,BKN030,0.02,VWS V14.00,2013-09-10 18:37:00,
2013-09-10 13:42:00,72.2,63.1,29.92,West,260,0.0,0.0,73,0.00,,BKN030,0.02,VWS V14.00,2013-09-10 18:42:00,
2013-09-10 13:47:00,72.4,63.3,29.92,West,260,0.0,0.0,73,0.00,,BKN030,0.02,VWS V14.00,2013-09-10 18:47:00,
2013-09-10 13:52:00,72.9,63.0,29.92,West,260,1.0,1.0,71,0.00,,BKN030,0.02,VWS V14.00,2013-09-10 18:52:00,
2013-09-10 13:57:00,72.7,62.4,29.92,West,262,0.0,3.0,70,0.00,,BKN030,0.02,VWS V14.00,2013-09-10 18:57:00,
2013-09-10 14:02:00,72.3,62.8,29.92,West,261,0.0,0.0,72,0.00,,BKN045,0.02,VWS V14.00,2013-09-10 19:02:00,
2013-09-10 14:07:00,72.0,62.1,29.92,West,263,0.0,1.0,71,0.00,,BKN045,0.02,VWS V14.00,2013-09-10 19:07:00,
2013-09-10 14:12:00,71.8,62.3,29.92,West,265,0.0,1.0,72,0.00,,BKN045,0.02,VWS V14.00,2013-09-10 19:12:00,
2013-09-10 14:17:00,71.8,62.3,29.92,West,265,0.0,1.0,72,0.00,,BKN045,0.02,VWS V14.00,2013-09-10 19:17:00,
2013-09-10 14:22:00,72.0,62.5,29.92,West,267,0.0,0.0,72,0.00,,BKN045,0.02,VWS V14.00,2013-09-10 19:22:00,
2013-09-10 14:27:00,72.4,62.5,29.92,West,270,8.0,10.0,71,0.00,,BKN045,0.02,VWS V14.00,2013-09-10 19:27:00,
2013-09-10 14:32:00,72.3,62.0,29.92,West,278,7.0,8.0,70,0.00,,BKN045,0.02,VWS V14.00,2013-09-10 19:32:00,
2013-09-10 14:37:00,72.3,62.4,29.92,WNW,287,0.0,9.0,71,0.00,,BKN045,0.02,VWS V14.00,2013-09-10 19:37:00,
2013-09-10 14:42:00,72.5,62.2,29.92,WNW,292,0.0,1.0,70,0.00,,BKN045,0.02,VWS V14.00,2013-09-10 19:42:00,
2013-09-10 14:47:00,72.5,61.8,29.92,West,277,0.0,7.0,69,0.00,,BKN045,0.02,VWS V14.00,2013-09-10 19:47:00,
2013-09-10 14:52:00,72.5,62.2,29.92,WNW,283,0.0,1.0,70,0.00,,BKN045,0.02,VWS V14.00,2013-09-10 19:52:00,
2013-09-10 14:57:00,72.5,62.2,29.92,WNW,283,0.0,1.0,70,0.00,,BKN045,0.02,VWS V14.00,2013-09-10 19:57:00,
2013-09-10 15:03:00,73.3,63.3,29.92,West,281,0.0,1.0,71,0.00,,BKN049,0.02,VWS V14.00,2013-09-10 20:03:00,
2013-09-10 15:08:00,74.5,62.8,29.92,West,273,0.0,13.0,67,0.00,,BKN049,0.02,VWS V14.00,2013-09-10 20:08:00,
2013-09-10 15:13:00,74.7,62.2,29.92,West,262,1.0,15.0,65,0.00,,BKN049,0.02,VWS V14.00,2013-09-10 20:13:00,
2013-09-10 15:18:00,74.8,62.3,29.92,West,263,7.0,15.0,65,0.00,,BKN049,0.02,VWS V14.00,2013-09-10 20:18:00,
2013-09-10 15:23:00,74.6,61.6,29.91,WNW,289,8.0,11.0,64,0.00,,BKN049,0.02,VWS V14.00,2013-09-10 20:23:00,
2013-09-10 15:28:00,74.5,62.0,29.91,WSW,241,0.0,11.0,65,0.00,,BKN049,0.02,VWS V14.00,2013-09-10 20:28:00,
2013-09-10 15:33:00,74.5,62.0,29.92,WNW,282,7.0,8.0,65,0.00,,BKN049,0.02,VWS V14.00,2013-09-10 20:33:00,
2013-09-10 15:38:00,74.3,61.3,29.92,WNW,293,3.0,14.0,64,0.00,,BKN049,0.02,VWS V14.00,2013-09-10 20:38:00,
2013-09-10 15:43:00,74.0,60.6,29.91,WNW,283,10.0,12.0,63,0.00,,BKN049,0.02,VWS V14.00,2013-09-10 20:43:00,
2013-09-10 15:48:00,74.0,61.1,29.91,NW,310,5.0,12.0,64,0.00,,BKN049,0.02,VWS V14.00,2013-09-10 20:48:00,
2013-09-10 15:53:00,74.2,60.4,29.91,WNW,282,0.0,12.0,62,0.00,,BKN049,0.02,VWS V14.00,2013-09-10 20:53:00,
2013-09-10 15:58:00,74.4,60.5,29.91,WNW,286,7.0,12.0,62,0.00,,BKN049,0.02,VWS V14.00,2013-09-10 20:58:00,
2013-09-10 16:03:00,74.7,60.4,29.91,WNW,282,7.0,13.0,61,0.00,,CLR,0.02,VWS V14.00,2013-09-10 21:03:00,
2013-09-10 16:08:00,75.2,60.8,29.91,WSW,258,5.0,13.0,61,0.00,,CLR,0.02,VWS V14.00,2013-09-10 21:08:00,
2013-09-10 16:13:00,75.8,60.5,29.91,West,273,7.0,13.0,59,0.00,,CLR,0.02,VWS V14.00,2013-09-10 21:13:00,
2013-09-10 16:18:00,76.2,59.9,29.91,WNW,294,8.0,13.0,57,0.00,,CLR,0.02,VWS V14.00,2013-09-10 21:18:00,
2013-09-10 16:23:00,76.3,60.5,29.91,WNW,296,5.0,9.0,58,0.00,,CLR,0.02,VWS V14.00,2013-09-10 21:23:00,
2013-09-10 16:28:00,76.7,60.8,29.91,West,271,4.0,9.0,58,0.00,,CLR,0.02,VWS V14.00,2013-09-10 21:28:00,
2013-09-10 16:33:00,76.9,61.0,29.91,NW,309,4.0,8.0,58,0.00,,CLR,0.02,VWS V14.00,2013-09-10 21:33:00,
2013-09-10 16:38:00,76.8,60.4,29.91,West,270,6.0,13.0,57,0.00,,CLR,0.02,VWS V14.00,2013-09-10 21:38:00,
2013-09-10 16:43:00,76.9,61.0,29.91,West,279,3.0,6.0,58,0.00,,CLR,0.02,VWS V14.00,2013-09-10 21:43:00,
2013-09-10 16:48:00,77.3,60.4,29.91,WNW,284,5.0,12.0,56,0.00,,CLR,0.02,VWS V14.00,2013-09-10 21:48:00,
2013-09-10 16:53:00,77.1,59.7,29.91,NNW,327,2.0,11.0,55,0.00,,CLR,0.02,VWS V14.00,2013-09-10 21:53:00,
2013-09-10 16:58:00,77.0,61.1,29.91,West,275,4.0,11.0,58,0.00,,CLR,0.02,VWS V14.00,2013-09-10 21:58:00,
2013-09-10 17:03:00,77.1,60.7,29.91,West,264,5.0,11.0,57,0.00,,FEW040,0.02,VWS V14.00,2013-09-10 22:03:00,
2013-09-10 17:08:00,76.7,60.8,29.91,SW,236,5.0,13.0,58,0.00,,FEW040,0.02,VWS V14.00,2013-09-10 22:08:00,
2013-09-10 17:13:00,76.6,60.2,29.91,West,272,5.0,12.0,57,0.00,,FEW040,0.02,VWS V14.00,2013-09-10 22:13:00,
2013-09-10 17:18:00,76.2,60.4,29.91,WSW,258,2.0,12.0,58,0.00,,FEW040,0.02,VWS V14.00,2013-09-10 22:18:00,
2013-09-10 17:23:00,76.1,60.8,29.91,WSW,253,4.0,9.0,59,0.00,,FEW040,0.02,VWS V14.00,2013-09-10 22:23:00,
2013-09-10 17:28:00,76.5,60.6,29.91,West,275,7.0,9.0,58,0.00,,FEW040,0.02,VWS V14.00,2013-09-10 22:28:00,
2013-09-10 17:33:00,76.7,60.3,29.91,West,271,5.0,10.0,57,0.00,,FEW040,0.02,VWS V14.00,2013-09-10 22:33:00,
2013-09-10 17:38:00,76.8,60.9,29.91,West,266,7.0,10.0,58,0.00,,FEW040,0.02,VWS V14.00,2013-09-10 22:38:00,
2013-09-10 17:43:00,76.6,60.2,29.91,WNW,285,10.0,10.0,57,0.00,,FEW040,0.02,VWS V14.00,2013-09-10 22:43:00,
2013-09-10 17:48:00,76.5,60.6,29.91,West,266,6.0,10.0,58,0.00,,FEW040,0.02,VWS V14.00,2013-09-10 22:48:00,
2013-09-10 17:53:00,76.7,60.3,29.91,WNW,298,8.0,11.0,57,0.00,,FEW040,0.02,VWS V14.00,2013-09-10 22:53:00,
2013-09-10 17:58:00,76.5,60.2,29.91,West,264,7.0,11.0,57,0.00,,FEW040,0.02,VWS V14.00,2013-09-10 22:58:00,
2013-09-10 18:03:00,76.4,60.5,29.92,West,271,5.0,11.0,58,0.00,,FEW039,0.02,VWS V14.00,2013-09-10 23:03:00,
2013-09-10 18:08:00,76.6,60.2,29.92,West,259,3.0,13.0,57,0.00,,FEW039,0.02,VWS V14.00,2013-09-10 23:08:00,
2013-09-10 18:13:00,76.7,60.3,29.92,WSW,244,3.0,9.0,57,0.00,,FEW039,0.02,VWS V14.00,2013-09-10 23:13:00,
2013-09-10 18:19:00,76.6,60.7,29.92,West,259,6.0,9.0,58,0.00,,FEW039,0.02,VWS V14.00,2013-09-10 23:19:00,
2013-09-10 18:24:00,76.4,60.5,29.91,WSW,256,1.0,10.0,58,0.00,,FEW039,0.02,VWS V14.00,2013-09-10 23:24:00,
2013-09-10 18:29:00,76.4,60.1,29.91,West,271,3.0,10.0,57,0.00,,FEW039,0.02,VWS V14.00,2013-09-10 23:29:00,
2013-09-10 18:34:00,76.4,60.1,29.91,WNW,285,7.0,9.0,57,0.00,,FEW039,0.02,VWS V14.00,2013-09-10 23:34:00,
2013-09-10 18:39:00,76.3,59.5,29.91,West,276,3.0,10.0,56,0.00,,FEW039,0.02,VWS V14.00,2013-09-10 23:39:00,
2013-09-10 18:44:00,75.9,58.6,29.91,West,273,7.0,11.0,55,0.00,,FEW039,0.02,VWS V14.00,2013-09-10 23:44:00,
2013-09-10 18:49:00,75.5,58.7,29.91,West,264,7.0,11.0,56,0.00,,FEW039,0.02,VWS V14.00,2013-09-10 23:49:00,
2013-09-10 18:54:00,75.3,58.5,29.91,West,268,7.0,7.0,56,0.00,,FEW039,0.02,VWS V14.00,2013-09-10 23:54:00,
2013-09-10 18:59:00,75.0,58.3,29.91,WNW,287,3.0,9.0,56,0.00,,FEW039,0.02,VWS V14.00,2013-09-10 23:59:00,
2013-09-10 19:04:00,74.7,58.5,29.91,WNW,287,6.0,6.0,57,0.00,,CLR,0.02,VWS V14.00,2013-09-11 00:04:00,
2013-09-10 19:09:00,74.4,59.2,29.91,WNW,287,0.0,6.0,59,0.00,,CLR,0.02,VWS V14.00,2013-09-11 00:09:00,
2013-09-10 19:14:00,73.9,59.2,29.91,WNW,287,0.0,0.0,60,0.00,,CLR,0.02,VWS V14.00,2013-09-11 00:14:00,
2013-09-10 19:19:00,73.4,59.2,29.91,WNW,287,0.0,0.0,61,0.00,,CLR,0.02,VWS V14.00,2013-09-11 00:19:00,
2013-09-10 19:24:00,72.8,59.0,29.91,WNW,287,0.0,0.0,62,0.00,,CLR,0.02,VWS V14.00,2013-09-11 00:24:00,
2013-09-10 19:29:00,72.3,59.5,29.91,WNW,287,0.0,0.0,64,0.00,,CLR,0.02,VWS V14.00,2013-09-11 00:29:00,
2013-09-10 19:34:00,71.9,59.5,29.91,WNW,287,0.0,0.0,65,0.00,,CLR,0.02,VWS V14.00,2013-09-11 00:34:00,
2013-09-10 19:39:00,71.6,59.7,29.91,WNW,287,0.0,0.0,66,0.00,,CLR,0.02,VWS V14.00,2013-09-11 00:39:00,
2013-09-10 19:44:00,71.2,59.3,29.91,WNW,287,0.0,0.0,66,0.00,,CLR,0.02,VWS V14.00,2013-09-11 00:44:00,
2013-09-10 19:49:00,71.0,59.5,29.91,WNW,287,0.0,0.0,67,0.00,,CLR,0.02,VWS V14.00,2013-09-11 00:49:00,
2013-09-10 19:54:00,70.7,59.6,29.91,WNW,287,0.0,0.0,68,0.00,,CLR,0.02,VWS V14.00,2013-09-11 00:54:00,
2013-09-10 19:59:00,70.3,59.2,29.91,WNW,287,0.0,0.0,68,0.00,,CLR,0.02,VWS V14.00,2013-09-11 00:59:00,
2013-09-10 20:04:00,70.0,59.4,29.91,WNW,287,0.0,0.0,69,0.00,,CLR,0.02,VWS V14.00,2013-09-11 01:04:00,
2013-09-10 20:09:00,69.7,59.1,29.91,WNW,287,0.0,0.0,69,0.00,,CLR,0.02,VWS V14.00,2013-09-11 01:09:00,
2013-09-10 20:14:00,69.4,59.2,29.91,WNW,287,0.0,0.0,70,0.00,,CLR,0.02,VWS V14.00,2013-09-11 01:14:00,
2013-09-10 20:19:00,69.2,59.4,29.92,WNW,287,0.0,0.0,71,0.00,,CLR,0.02,VWS V14.00,2013-09-11 01:19:00,
2013-09-10 20:24:00,68.9,59.5,29.92,WNW,286,0.0,0.0,72,0.00,,CLR,0.02,VWS V14.00,2013-09-11 01:24:00,
2013-09-10 20:29:00,68.6,59.2,29.92,WNW,283,0.0,0.0,72,0.00,,CLR,0.02,VWS V14.00,2013-09-11 01:29:00,
2013-09-10 20:34:00,68.4,59.4,29.92,WNW,282,0.0,0.0,73,0.00,,CLR,0.02,VWS V14.00,2013-09-11 01:34:00,
2013-09-10 20:39:00,68.2,59.6,29.93,West,280,0.0,1.0,74,0.00,,CLR,0.02,VWS V14.00,2013-09-11 01:39:00,
2013-09-10 20:44:00,68.0,59.4,29.93,WSW,242,0.0,6.0,74,0.00,,CLR,0.02,VWS V14.00,2013-09-11 01:44:00,
2013-09-10 20:49:00,68.0,59.8,29.93,WSW,242,0.0,6.0,75,0.00,,CLR,0.02,VWS V14.00,2013-09-11 01:49:00,
2013-09-10 20:54:00,67.9,60.1,29.93,SW,236,0.0,4.0,76,0.00,,CLR,0.02,VWS V14.00,2013-09-11 01:54:00,
2013-09-10 20:59:00,67.9,60.1,29.93,SW,214,0.0,7.0,76,0.00,,CLR,0.02,VWS V14.00,2013-09-11 01:59:00,
2013-09-10 21:04:00,67.9,60.1,29.93,SSW,212,0.0,1.0,76,0.00,,CLR,0.02,VWS V14.00,2013-09-11 02:04:00,
2013-09-10 21:09:00,67.8,60.0,29.93,SSW,212,0.0,1.0,76,0.00,,CLR,0.02,VWS V14.00,2013-09-11 02:09:00,
2013-09-10 21:14:00,67.7,59.9,29.93,SSW,207,0.0,4.0,76,0.00,,CLR,0.02,VWS V14.00,2013-09-11 02:14:00,
2013-09-10 21:19:00,67.5,60.0,29.93,SSW,207,0.0,4.0,77,0.00,,CLR,0.02,VWS V14.00,2013-09-11 02:19:00,
2013-09-10 21:24:00,67.3,59.8,29.93,SSW,207,0.0,0.0,77,0.00,,CLR,0.02,VWS V14.00,2013-09-11 02:24:00,
2013-09-10 21:29:00,67.1,60.0,29.93,SSW,206,0.0,0.0,78,0.00,,CLR,0.02,VWS V14.00,2013-09-11 02:29:00,
2013-09-10 21:34:00,67.0,59.9,29.93,SSW,200,0.0,0.0,78,0.00,,CLR,0.02,VWS V14.00,2013-09-11 02:34:00,
2013-09-10 21:39:00,67.0,60.3,29.93,SSW,200,0.0,0.0,79,0.00,,CLR,0.02,VWS V14.00,2013-09-11 02:39:00,
2013-09-10 21:44:00,66.8,60.1,29.93,SSW,199,0.0,0.0,79,0.00,,CLR,0.02,VWS V14.00,2013-09-11 02:44:00,
2013-09-10 21:49:00,66.6,59.9,29.93,SSW,199,0.0,0.0,79,0.00,,CLR,0.02,VWS V14.00,2013-09-11 02:49:00,
2013-09-10 21:54:00,66.4,59.7,29.93,SSW,199,0.0,0.0,79,0.00,,CLR,0.02,VWS V14.00,2013-09-11 02:54:00,
2013-09-10 21:59:00,66.3,60.0,29.92,SSW,199,0.0,0.0,80,0.00,,CLR,0.02,VWS V14.00,2013-09-11 02:59:00,
2013-09-10 22:04:00,66.0,59.7,29.92,SSW,199,0.0,0.0,80,0.00,,CLR,0.02,VWS V14.00,2013-09-11 03:04:00,
2013-09-10 22:09:00,65.9,59.9,29.92,SSW,198,0.0,0.0,81,0.00,,CLR,0.02,VWS V14.00,2013-09-11 03:09:00,
2013-09-10 22:14:00,65.8,59.8,29.92,SSW,198,0.0,0.0,81,0.00,,CLR,0.02,VWS V14.00,2013-09-11 03:14:00,
2013-09-10 22:19:00,65.7,59.7,29.92,SSW,198,0.0,0.0,81,0.00,,CLR,0.02,VWS V14.00,2013-09-11 03:19:00,
2013-09-10 22:24:00,65.5,59.9,29.92,SSW,198,0.0,0.0,82,0.00,,CLR,0.02,VWS V14.00,2013-09-11 03:24:00,
2013-09-10 22:29:00,65.4,59.8,29.93,SSW,198,0.0,0.0,82,0.00,,CLR,0.02,VWS V14.00,2013-09-11 03:29:00,
2013-09-10 22:34:00,65.2,59.6,29.93,SSW,198,0.0,0.0,82,0.00,,CLR,0.02,VWS V14.00,2013-09-11 03:34:00,
2013-09-10 22:39:00,65.0,59.7,29.93,SSW,198,0.0,0.0,83,0.00,,CLR,0.02,VWS V14.00,2013-09-11 03:39:00,
2013-09-10 22:45:00,64.8,59.5,29.93,SSW,198,0.0,0.0,83,0.00,,CLR,0.02,VWS V14.00,2013-09-11 03:45:00,
2013-09-10 22:50:00,64.7,59.4,29.93,SSW,198,0.0,0.0,83,0.00,,CLR,0.02,VWS V14.00,2013-09-11 03:50:00,
2013-09-10 22:55:00,64.5,59.2,29.93,SSW,198,0.0,0.0,83,0.00,,CLR,0.02,VWS V14.00,2013-09-11 03:55:00,
2013-09-10 23:00:00,64.4,59.1,29.93,SSW,198,0.0,0.0,83,0.00,,CLR,0.02,VWS V14.00,2013-09-11 04:00:00,
2013-09-10 23:01:00,64.4,59.5,29.92,SSW,198,0.0,0.0,84,0.00,,CLR,0.02,VWS V14.00,2013-09-11 04:01:00,
2013-09-10 23:02:00,64.4,59.1,29.93,SSW,198,0.0,0.0,83,0.00,,CLR,0.02,VWS V14.00,2013-09-11 04:02:00,
2013-09-10 23:07:00,64.3,59.4,29.92,SSW,198,0.0,0.0,84,0.00,,CLR,0.02,VWS V14.00,2013-09-11 04:07:00,
2013-09-10 23:12:00,64.2,59.3,29.92,SSW,198,0.0,0.0,84,0.00,,CLR,0.02,VWS V14.00,2013-09-11 04:12:00,
2013-09-10 23:17:00,64.2,59.3,29.92,SSW,198,0.0,0.0,84,0.00,,CLR,0.02,VWS V14.00,2013-09-11 04:17:00,
2013-09-10 23:22:00,64.2,59.3,29.92,SSW,198,0.0,0.0,84,0.00,,CLR,0.02,VWS V14.00,2013-09-11 04:22:00,
2013-09-10 23:27:00,64.1,59.2,29.92,SSW,198,0.0,0.0,84,0.00,,CLR,0.02,VWS V14.00,2013-09-11 04:27:00,
2013-09-10 23:32:00,64.3,59.4,29.92,SSW,198,0.0,0.0,84,0.00,,CLR,0.02,VWS V14.00,2013-09-11 04:32:00,
2013-09-10 23:37:00,64.4,59.5,29.92,SSW,198,0.0,0.0,84,0.00,,CLR,0.02,VWS V14.00,2013-09-11 04:37:00,
2013-09-10 23:42:00,64.7,59.4,29.92,SSW,198,0.0,0.0,83,0.00,,CLR,0.02,VWS V14.00,2013-09-11 04:42:00,
2013-09-10 23:47:00,64.8,59.5,29.92,SSW,198,0.0,0.0,83,0.00,,CLR,0.02,VWS V14.00,2013-09-11 04:47:00,
2013-09-10 23:52:00,65.1,59.8,29.92,SW,215,0.0,8.0,83,0.00,,CLR,0.02,VWS V14.00,2013-09-11 04:52:00,
2013-09-10 23:57:00,65.2,59.6,29.92,SW,222,3.0,8.0,82,0.00,,CLR,0.02,VWS V14.00,2013-09-11 04:57:00,